Simultaneous Nadir Overpasses (SNOs) Predictions

Prediction of SNOs between AQUA and NOAA-19 Satellite Orbit:

Table of predicted SNOs for the next 14.0 days since TLE Epoch: 7/1/2023
Index Date (AQUA) Time (AQUA) Lat,Lon (AQUA) SZA (AQUA ) Date (NOAA-19) Time (NOAA-19) Lat,Lon (NOAA-19) SZA (NOAA-19 ) Distance(km) Time Diff (sec)
1 07/03/2023 00:43:35 -76.39, -20.05 126.44 07/03/2023 00:43:03 -76.39, -20.21 126.42 4.26 32
2 07/03/2023 01:33:02 76.47, 147.33 53.66 07/03/2023 01:34:05 76.48, 147.38 53.65 1.91 63
3 07/05/2023 05:25:38 -76.38, -90.50 126.26 07/05/2023 05:24:32 -76.37, -90.59 126.25 2.35 66
4 07/05/2023 06:15:05 76.46, 76.86 53.84 07/05/2023 06:15:34 76.46, 77.00 53.83 3.80 29
5 07/07/2023 10:57:07 76.43, 6.47 54.03 07/07/2023 10:57:03 76.43, 6.60 54.03 3.25 4
6 07/07/2023 11:46:42 -76.96, 172.24 125.36 07/07/2023 11:47:46 -76.94, 175.99 125.56 94.37 64
7 07/09/2023 15:39:08 76.38, -63.83 54.22 07/09/2023 15:38:32 76.40, -63.84 54.25 2.51 36
8 07/09/2023 16:28:33 -76.43, 103.63 125.72 07/09/2023 16:29:26 -76.45, 103.62 125.71 1.47 53
9 07/11/2023 20:21:09 76.35,-134.21 54.47 07/11/2023 20:20:01 76.36,-134.30 54.50 2.83 68
10 07/11/2023 21:10:34 -76.40, 33.26 125.47 07/11/2023 21:10:55 -76.41, 33.18 125.46 2.59 21
11 07/14/2023 01:52:35 -76.39, -37.18 125.17 07/14/2023 01:52:24 -76.37, -37.27 125.18 2.83 11



Historial Predications of SNOs between AQUA and NOAA-19
